Regional Weather Roundup
Issued by NWS

Home | Current Version | Previous Version | Graphics & Text | Print | Product List | Glossary On
Versions: 1 2 3 4 5 6 7 8 9 10 11 12 13 14 15 16 17 18 19 20 21 22 23 24 25 26 27 28 29 30 31 32 33 34 35 36 37 38 39 40 41 42 43 44 45 46 47 48 49 50
000
ASUS45 KBOI 241210
RWRID

IDAHO REGIONAL WEATHER ROUNDUP
NATIONAL WEATHER SERVICE BOISE ID
500 AM MST SAT FEB 24 2018

NOTE: "FAIR" INDICATES FEW OR NO CLOUDS BELOW 12000 FEET
WITH NO SIGNIFICANT WEATHER AND/OR OBSTRUCTIONS TO VISIBILITY

IDZ012-014-241300-
SOUTHWEST IDAHO


CITY           SKY/WX    TMP DP  RH WIND       PRES   REMARKS
BOISE          CLOUDY    26  16  65 SE13      30.11F WCI  15
CALDWELL       CLOUDY    27  17  66 E8        30.13F WCI  19
MOUNTAIN HOME  CLOUDY    23  22  95 E8        30.12F WCI  14
$$

IDZ016-017-241300-
SOUTHCENTRAL IDAHO


CITY           SKY/WX    TMP DP  RH WIND       PRES   REMARKS
BURLEY         PTCLDY    19   9  65 W15       30.07F WCI   5
JEROME         CLOUDY    21  10  62 SW7       30.10F WCI  12
TWIN FALLS     CLOUDY    22  12  65 SW9       30.10F WCI  12
$$

IDZ019>023-241300-
SOUTHEAST IDAHO


CITY           SKY/WX    TMP DP  RH WIND       PRES   REMARKS
IDAHO FALLS    PTCLDY    15   8  73 SW14G22   30.02S WCI   0
POCATELLO      PTCLDY    20  10  65 SW18      30.07S WCI   5
REXBURG        CLOUDY    15   9  76 SW16G23   29.99R WCI  -1
$$

IDZ006-010-011-018-031-032-241300-
CENTRAL IDAHO MOUNTAINS


CITY           SKY/WX    TMP DP  RH WIND       PRES   REMARKS
MCCALL         LGT SNOW  15  11  83 NE3       29.95F FOG
HAILEY           N/A    N/A N/A N/A MISG        N/A
STANLEY          N/A     11   6  81 SE5       29.92F WCI   3
SALMON         FLURRIES  19  12  74 NE3       29.97F
CHALLIS        CLOUDY    23   4  44 S9        29.93F WCI  13
$$

IDZ002-004-006-007-026-241300-
NORTHERN IDAHO


CITY           SKY/WX    TMP DP  RH WIND       PRES   REMARKS
LEWISTON       CLOUDY    31  23  72 E5        29.98F WCI  26
LOWELL           N/A     26  25  96 CALM      30.09F
COEUR D`ALENE  FLURRIES  24  20  84 S9        29.93F WCI  14
MULLAN PASS    LGT SNOW  10   8  92 VRB6      29.73F FOG     WCI   0
$$



USA.gov is the U.S. government's official web portal to all federal, state and local government web resources and services.